Starlink 11166

operational
NORAD ID: 60062 Int'l Des: 2024-113 Owner: SPXS Country: US Constellation: starlink
LEOCIRCULAR

关于 Starlink 11166

正在加载描述...

实时位置

正在加载3D地球...

即将过境

高度历史

Altitude vs Time

uPlot chart will show altitude changes over time

两行轨道根数

1 60062U 24113D 25258.48386183 .00000234 00000-0 67908-5 0 9992
2 60062 53.1587 334.8756 0000898 67.7040 292.4073 15.69704415 72042
Epoch: Sep 15, 2025 • Age: 16 hours

当前状态

高度 365.3 km
速度 7.70 km/s
星下点 51.37°N, 37.56°E
发射日期 Jun 19, 2024
运行时间 1.2 years
类型 internet

技术详情

分类 Payload
质量 960.00 kg
干质量 910.00 kg
总质量 960.00 kg
长度 0.30 m
直径 4.10 m
跨度 29.00 m
形状 Box + pan
制造商 SPXS
平台类型 Starlink V2MD
阶段状态 In Orbit
所有者/国家 SPXS/US

大型星座

Loading constellations...